DW4988 Weather Reports


Display with metric or nautical units.
time (UTC)temp
F
wind
direction
speed
MPH
gust
MPH
rain 1hr
in
rain 24hr
in
rain mn
in
humidity
%
barometer
mb
20220522131536 45 203 1.0 7.0 0.00 0.00 0.00 40 1019.1
20220522130046 44 209 2.0 5.0 0.00 0.00 0.00 42 1019.1
20220522124542 43 178 0.0 5.0 0.00 0.00 0.00 42 1019.0
20220522123040 43 202 2.0 5.0 0.00 0.00 0.00 43 1018.8
20220522121541 43 214 1.0 7.0 0.00 0.00 0.00 47 1018.8
20220522120039 43 0 0.0 2.0 0.00 0.00 0.00 45 1018.6
20220522114536 43 0 0.0 2.0 0.00 0.00 0.00 46 1018.7
20220522113054 43 0 0.0 3.0 0.00 0.00 0.00 44 1018.8
20220522111543 43 194 0.0 2.0 0.00 0.00 0.00 45 1019.0
20220522110047 43 0 0.0 3.0 0.00 0.00 0.00 46 1018.8
20220522104607 43 148 0.0 2.0 0.00 0.00 0.00 44 1019.0
20220522103047 45 0 1.0 3.0 0.00 0.00 0.00 40 1018.9
20220522101543 46 0 0.0 3.0 0.00 0.00 0.00 36 1019.0
20220522100045 46 150 0.0 0.0 0.00 0.00 0.00 37 1018.9
20220522094546 46 0 0.0 2.0 0.00 0.00 0.00 38 1018.9
20220522093047 45 207 0.0 1.0 0.00 0.00 0.00 41 1019.1
20220522091536 44 207 1.0 2.0 0.00 0.00 0.00 41 1019.1
20220522090037 44 202 1.0 3.0 0.00 0.00 0.00 42 1019.1
20220522084538 45 0 0.0 2.0 0.00 0.00 0.00 39 1019.0
20220522083037 45 0 0.0 0.0 0.00 0.00 0.00 38 1019.1
20220522081541 45 0 0.0 0.0 0.00 0.00 0.00 39 1019.2
20220522080038 45 0 0.0 0.0 0.00 0.00 0.00 38 1019.1
20220522074536 46 0 0.0 0.0 0.00 0.00 0.00 37 1019.2
20220522073034 47 0 0.0 0.0 0.00 0.00 0.00 35 1019.4
20220522071544 48 0 0.0 2.0 0.00 0.00 0.00 33 1019.5
20220522070039 48 352 1.0 4.0 0.00 0.00 0.00 31 1019.6
20220522064534 48 0 0.0 2.0 0.00 0.00 0.00 33 1019.6
20220522063035 47 0 0.0 2.0 0.00 0.00 0.00 35 1019.6
20220522061536 48 352 1.0 3.0 0.00 0.00 0.00 32 1019.7
20220522060043 49 15 1.0 3.0 0.00 0.00 0.00 32 1019.6
20220522054538 50 317 0.0 6.0 0.00 0.00 0.00 30 1019.7
20220522053039 50 292 2.0 4.0 0.00 0.00 0.00 33 1019.6
20220522051539 50 293 1.0 3.0 0.00 0.00 0.00 32 1019.7
20220522050043 50 334 1.0 4.0 0.00 0.00 0.00 29 1019.7
20220522044535 51 278 2.0 4.0 0.00 0.00 0.00 27 1019.6
20220522043036 52 0 1.0 3.0 0.00 0.00 0.00 27 1019.4
20220522041536 52 268 0.0 3.0 0.00 0.00 0.00 27 1019.3
20220522040043 53 265 2.0 6.0 0.00 0.00 0.00 26 1019.1
20220522034533 54 267 3.0 7.0 0.00 0.00 0.00 25 1019.0
20220522033035 54 277 2.0 6.0 0.00 0.00 0.00 26 1018.8
20220522031536 55 279 3.0 7.0 0.00 0.00 0.00 28 1018.6
20220522030033 56 297 3.0 8.0 0.00 0.00 0.00 26 1018.5
20220522024532 56 288 3.0 9.0 0.00 0.00 0.00 24 1018.3
20220522023138 57 299 4.0 10.0 0.00 0.00 0.00 22 1018.3
20220522021535 58 318 3.0 9.0 0.00 0.00 0.00 21 1018.2
20220522020036 58 291 5.0 10.0 0.00 0.00 0.00 21 1018.0
20220522014541 59 323 4.0 11.0 0.00 0.00 0.00 21 1018.0
20220522013043 59 256 6.0 10.0 0.00 0.00 0.00 20 1017.9
20220522011540 59 302 5.0 11.0 0.00 0.00 0.00 20 1017.9
20220522010104 61 282 6.0 12.0 0.00 0.00 0.00 18 1017.8
20220522004535 62 299 5.0 11.0 0.00 0.00 0.00 17 1017.7
20220522003047 62 330 5.0 14.0 0.00 0.00 0.00 18 1017.6
20220522001535 62 300 4.0 11.0 0.00 0.00 0.00 16 1017.6
20220522000042 63 340 8.0 15.0 0.00 0.00 0.00 15 1017.6
20220521234536 63 321 5.0 12.0 0.00 0.00 0.00 16 1017.6
20220521233042 64 269 3.0 13.0 0.00 0.00 0.00 16 1017.6
20220521231539 65 223 1.0 5.0 0.00 0.00 0.00 12 1017.7
20220521230039 66 143 1.0 6.0 0.00 0.00 0.00 11 1017.7
20220521224544 66 0 3.0 8.0 0.00 0.00 0.00 10 1017.7
20220521223043 64 307 5.0 14.0 0.00 0.00 0.00 15 1017.7
20220521221533 66 186 3.0 8.0 0.00 0.00 0.00 12 1017.8
20220521220039 64 198 1.0 6.0 0.00 0.00 0.00 13 1017.8
20220521214539 66 86 8.0 15.0 0.00 0.00 0.00 13 1018.0
20220521213101 65 211 1.0 10.0 0.00 0.00 0.00 15 1018.0
20220521211538 64 294 3.0 7.0 0.00 0.00 0.00 13 1018.1
20220521210056 62 241 1.0 6.0 0.00 0.00 0.00 16 1018.2
20220521204543 64 164 2.0 4.0 0.00 0.00 0.00 14 1018.2
20220521203046 63 67 5.0 12.0 0.00 0.00 0.00 13 1018.3
20220521201538 61 202 0.0 8.0 0.00 0.00 0.00 18 1018.3
20220521200049 65 185 3.0 10.0 0.00 0.00 0.00 15 1018.3
20220521194545 61 241 2.0 9.0 0.00 0.00 0.00 16 1018.4
20220521193035 63 84 4.0 10.0 0.00 0.00 0.00 19 1018.6
20220521191543 61 315 0.0 6.0 0.00 0.00 0.00 21 1018.7
20220521190040 63 137 2.0 9.0 0.00 0.00 0.00 20 1018.8
20220521184543 61 217 2.0 8.0 0.00 0.00 0.00 21 1019.0
20220521183043 62 138 1.0 11.0 0.00 0.00 0.00 21 1019.1
20220521181540 62 92 7.0 11.0 0.00 0.00 0.00 20 1019.2
20220521180055 58 140 1.0 8.0 0.00 0.00 0.00 20 1019.3
20220521174541 58 47 2.0 6.0 0.00 0.00 0.00 25 1019.4
20220521173041 60 176 4.0 9.0 0.00 0.00 0.00 25 1019.5
20220521171542 58 145 1.0 4.0 0.00 0.00 0.00 25 1019.6
20220521170059 57 31 2.0 7.0 0.00 0.00 0.00 27 1019.6
20220521164541 56 0 0.0 5.0 0.00 0.00 0.00 29 1019.6
20220521163052 56 105 3.0 8.0 0.00 0.00 0.00 31 1019.6
20220521161544 55 0 1.0 9.0 0.00 0.00 0.00 34 1019.6
20220521160052 53 111 2.0 8.0 0.00 0.00 0.00 37 1019.7
20220521154539 52 117 2.0 5.0 0.00 0.00 0.00 35 1019.8
20220521153040 51 0 1.0 6.0 0.00 0.00 0.00 39 1019.8
20220521151544 50 0 1.0 5.0 0.00 0.00 0.00 41 1019.7
20220521150039 49 14 2.0 5.0 0.00 0.00 0.00 43 1019.7
20220521144542 49 72 3.0 8.0 0.00 0.00 0.00 43 1019.7
20220521143054 48 53 3.0 7.0 0.00 0.00 0.00 45 1019.6
20220521141548 47 47 4.0 7.0 0.00 0.00 0.00 47 1019.6
20220521140053 45 71 3.0 6.0 0.00 0.00 0.00 50 1019.6
20220521134544 44 21 2.0 7.0 0.00 0.00 0.00 53 1019.4
20220521133044 42 84 2.0 4.0 0.00 0.00 0.00 57 1019.2